www.pogodaiklimat.ru

Погода и климат >> Архив погоды >> Австралия >> Северная территория >> Дерби


ПОГОДА в Дерби

  • Прогноз погоды в Дерби
  • Монитор погоды в Дерби

АРХИВ ПОГОДЫ в Дерби

Время (UTC), дата Ветер
(напр.,м/с)
 
Видим.   Явления Облачность Т
(С)
Тd
(С)
f
(%)
Тe
(С)
Тes
(С)
Комфортность P
(гПа)
Po
(гПа)
Тmin
(С)
Tmax
(С)
R
(мм)
R24
(мм)
S
(см)
22 16.01 ЮВ 1 н/о н/о +26.2 +24.2 89 +36 +36 очень
душно
1007.4 1006.6
00 17.01 ЮВ 4 н/о н/о +29.1 +25.5 81 +43 +43 опасность
перегрева
1009.0 1008.2
01 17.01 Ю 4 н/о 10/10 300 м
[]
+31.0 +25.6 73 +46 +46 опасность
перегрева
1009.6 1008.8 +23.2
03 17.01 Ю 2 н/о н/о +33.0 +23.9 59 +45 +45 опасность
перегрева
1008.2 1007.4
04 17.01 Ю 2 н/о {туман} н/о +33.9 +23.3 54 +44 +44 опасность
перегрева
1006.4 1005.6
06 17.01 З 3 н/о н/о +35.9 +24.2 51 +48 +48 опасность
перегрева
1004.2 1003.5
07 17.01 СЗ 5 н/о {туман} н/о +36.3 +24.2 50 +48 +48 опасность
перегрева
1003.6 1002.9
09 17.01 С 10 н/о н/о +33.5 +23.8 57 +45 +45 опасность
перегрева
1003.8 1003.1
10 17.01 С 8 н/о н/о +30.9 +24.1 67 +43 +43 опасность
перегрева
1004.3 1003.6
12 17.01 ЮВ 8 н/о н/о +24.6 +21.7 84 +31 +31 очень
душно
1008.4 1007.6
13 17.01 СВ 6 н/о 4/0
[]
+26.2 +22.5 80 +34 +34 очень
душно
1009.5 1008.7 +36.9
15 17.01 С 4 н/о н/о +27.0 +24.5 86 +38 +38 очень
душно
1007.2 1006.4
16 17.01 СЗ 4 н/о 9/0
[]
+28.3 +25.3 84 +41 +41 опасность
перегрева
1006.2 1005.4
18 17.01 Ю 2 н/о н/о +27.0 +25.0 89 +39 +39 очень
душно
1005.1 1004.4
19 17.01 З 3 н/о в посл. час дождь {туман} 10/0 2000 м
[]
+27.3 +25.7 91 +40 +40 очень
душно
1004.8 1004.1
21 17.01 Ю 2 н/о н/о +26.7 +25.5 93 +39 +39 очень
душно
1006.7 1005.9
22 17.01 ЮВ 4 н/о 10/10 300 м
[]
+26.9 +25.7 93 +40 +40 очень
душно
1008.6 1007.8
00 18.01 Ю 4 н/о н/о +29.6 +24.7 75 +42 +42 опасность
перегрева
1008.2 1007.4
01 18.01 Ю 5 н/о 10/0
[]
+30.3 +24.2 70 +42 +46 опасность
перегрева
1008.4 1007.6 +24.6
03 18.01 ЮВ 6 н/о н/о +33.5 +24.7 60 +47 +47 опасность
перегрева
1007.8 1007.0
04 18.01 В 5 н/о 3/0
[]
+34.3 +22.0 49 +43 +54 опасность
перегрева
1007.0 1006.2
06 18.01 ЮВ 2 н/о н/о +35.9 +21.7 44 +44 +44 опасность
перегрева
1005.1 1004.4
07 18.01 Ю 3 н/о н/о +36.7 +22.4 44 +46 +46 опасность
перегрева
1003.8 1003.1
09 18.01 С 5 н/о н/о +34.4 +23.7 54 +46 +46 опасность
перегрева
1003.6 1002.9
10 18.01 СЗ 4 н/о н/о +33.9 +24.2 57 +46 +46 опасность
перегрева
1004.1 1003.4
12 18.01 С 3 н/о н/о +31.8 +25.4 69 +46 +46 опасность
перегрева
1006.3 1005.5
13 18.01 СЗ 4 н/о 10/0
[]
+31.5 +26.1 73 +47 +47 опасность
перегрева
1007.5 1006.7 +37.3
15 18.01 В 5 н/о н/о +30.4 +26.1 78 +46 +46 опасность
перегрева
1007.5 1006.7
16 18.01 СВ 2 н/о 9/0
[]
+29.4 +23.8 72 +40 +40 очень
душно
1007.3 1006.5
18 18.01 С 3 н/о н/о +29.6 +25.1 77 +43 +43 опасность
перегрева
1006.4 1005.6
19 18.01 З 6 н/о 10/0
[]
+29.9 +24.8 74 +43 +43 опасность
перегрева
1006.3 1005.5
21 18.01 З 3 н/о н/о +29.6 +24.5 74 +42 +42 опасность
перегрева
1007.0 1006.2
22 18.01 З 3 н/о 10/0
[]
+29.8 +25.1 76 +43 +43 опасность
перегрева
1007.8 1007.0
00 19.01 З 3 н/о н/о +32.2 +23.7 61 +44 +44 опасность
перегрева
1008.7 1007.9
01 19.01 ЮЗ 3 н/о н/о +33.0 +23.6 58 +44 +44 опасность
перегрева
1009.1 1008.3 +29.2
03 19.01 З 2 н/о н/о +36.3 +22.8 46 +46 +46 опасность
перегрева
1007.6 1006.8
04 19.01 Ю 3 н/о н/о +37.3 +23.4 45 +48 +48 опасность
перегрева
1006.8 1006.0
06 19.01 СЗ 5 н/о н/о +37.5 +22.8 43 +47 +47 опасность
перегрева
1004.5 1003.8
07 19.01 СЗ 7 н/о 10/0 2000 м
[]
+35.9 +23.2 48 +46 +47 опасность
перегрева
1003.5 1002.8
09 19.01 СЗ 9 н/о н/о +32.4 +25.7 68 +48 +48 опасность
перегрева
1004.3 1003.6
10 19.01 СВ 8 1000 м дождь {туман} 10/10 300 м
[]
+24.2 +23.9 98 +33 +33 очень
душно
1007.6 1006.8
12 19.01 ЮЗ 3 н/о н/о +25.5 +23.2 87 +34 +34 очень
душно
1010.3 1009.5
13 19.01 ЮЗ 5 н/о слаб. дождь {туман} 10/0
[]
+25.2 +24.3 95 +35 +35 очень
душно
1010.0 1009.2 +38.7
15 19.01 З 4 н/о н/о +26.4 +25.5 95 +39 +39 очень
душно
1008.3 1007.5
16 19.01 ЮЗ 3 н/о {туман} 9/0
[]
+26.3 +25.1 93 +38 +38 очень
душно
1007.7 1006.9
18 19.01 ЮВ 4 н/о н/о +25.9 +24.9 94 +37 +37 очень
душно
1007.1 1006.3
19 19.01 ЮВ 3 н/о {туман} 4/0
[]
+25.5 +24.6 95 +36 +36 очень
душно
1007.4 1006.6
21 19.01 В 3 н/о н/о +25.4 +24.7 96 +36 +36 очень
душно
1008.1 1007.3
22 19.01 В 3 н/о н/о +25.8 +24.8 94 +37 +37 очень
душно
1008.4 1007.6
00 20.01 ЮВ 3 н/о н/о +29.2 +24.7 77 +42 +42 опасность
перегрева
1008.7 1007.9
01 20.01 ЮВ 4 н/о 1/0
[]
+31.4 +23.8 64 +43 +52 опасность
перегрева
1008.5 1007.7 +24.1
03 20.01 ЮВ 5 н/о н/о +36.4 +23.6 48 +47 +47 опасность
перегрева
1007.6 1006.8
04 20.01 СВ 4 н/о 1/0
[]
+37.0 +21.6 41 +45 +58 опасность
перегрева
1006.8 1006.0
06 20.01 З 4 н/о н/о +37.6 +23.6 45 +48 +48 опасность
перегрева
1004.8 1004.1
07 20.01 З 5 н/о 6/0 2000 м
[]
+38.0 +24.7 47 +51 +54 опасность
перегрева
1003.9 1003.2
09 20.01 СЗ 5 н/о н/о +37.0 +23.4 46 +47 +47 опасность
перегрева
1003.2 1002.5
10 20.01 С 5 н/о н/о +35.0 +25.5 58 +50 +50 опасность
перегрева
1003.9 1003.2
12 20.01 СЗ 4 н/о н/о +32.4 +27.2 74 +51 +51 опасность
перегрева
1005.4 1004.7
13 20.01 З 4 н/о 9/0
[]
+32.2 +26.5 72 +49 +49 опасность
перегрева
1006.3 1005.5 +38.9
15 20.01 С 6 н/о н/о +30.9 +26.8 79 +48 +48 опасность
перегрева
1007.3 1006.5
16 20.01 СЗ 8 н/о н/о +29.9 +26.7 83 +46 +46 опасность
перегрева
1006.3 1005.5
18 20.01 С 6 н/о н/о +29.7 +25.4 78 +44 +44 опасность
перегрева
1006.7 1005.9
19 20.01 С 8 н/о 10/10 1500 м
[]
+28.3 +21.6 67 +36 +36 очень
душно
1007.2 1006.4
21 20.01 ЮЗ 5 н/о н/о +26.0 +24.4 91 +36 +36 очень
душно
1007.0 1006.2
22 20.01 З 4 н/о в посл. час дождь {туман} 10/0
[]
+25.7 +24.8 95 +36 +37 очень
душно
1006.2 1005.4
00 21.01 СЗ 1 н/о н/о +28.2 +24.4 80 +40 +40 очень
душно
1005.7 1005.0
01 21.01 В 2 н/о {туман} 4/0
[]
+29.8 +24.7 74 +42 +53 опасность
перегрева
1006.3 1005.5 +24.5
03 21.01 С 3 н/о н/о +34.1 +24.7 58 +47 +47 опасность
перегрева
1006.1 1005.3
04 21.01 СЗ 4 н/о {туман} н/о +34.3 +24.8 58 +48 +48 опасность
перегрева
1005.9 1005.2
06 21.01 СЗ 6 н/о н/о +34.5 +24.4 56 +47 +47 опасность
перегрева
1004.6 1003.9
07 21.01 СЗ 5 н/о {туман} н/о +35.0 +22.0 47 +44 +44 опасность
перегрева
1004.0 1003.3
09 21.01 СЗ 6 н/о н/о +33.6 +24.2 58 +46 +46 опасность
перегрева
1002.6 1001.9
10 21.01 СЗ 6 н/о н/о +32.1 +23.1 59 +42 +42 опасность
перегрева
1003.6 1002.9
12 21.01 С 4 н/о н/о +30.7 +26.0 76 +46 +46 опасность
перегрева
1005.9 1005.2
13 21.01 С 3 н/о н/о +30.4 +25.5 75 +45 +45 опасность
перегрева
1006.2 1005.4 +35.9
15 21.01 В 4 н/о н/о +29.9 +22.9 66 +40 +40 очень
душно
1007.1 1006.3
16 21.01 СВ 1 н/о 9/0
[]
+29.1 +22.6 68 +38 +38 очень
душно
1005.7 1005.0
18 21.01 ЮВ 2 н/о н/о +28.1 +24.1 79 +39 +39 очень
душно
1005.4 1004.7
19 21.01 ЮВ 4 н/о 10/10 1000 м
[]
+28.1 +23.2 75 +38 +38 очень
душно
1005.2 1004.5
21 21.01 СВ 6 н/о н/о +27.2 +23.0 78 +36 +36 очень
душно
1005.4 1004.7
22 21.01 СВ 4 н/о 10/10 1000 м
[]
+27.5 +23.1 77 +37 +37 очень
душно
1005.4 1004.7
00 22.01 СВ 3 н/о н/о +30.2 +22.4 63 +39 +39 очень
душно
1005.6 1004.9
01 22.01 СВ 3 н/о н/о +32.4 +22.8 57 +42 +42 опасность
перегрева
1005.8 1005.1 +27.3
03 22.01 СВ 5 н/о н/о +35.1 +19.9 41 +41 +41 опасность
перегрева
1005.6 1004.9
04 22.01 С 3 н/о н/о +36.3 +22.8 46 +46 +46 опасность
перегрева
1005.2 1004.5
06 22.01 СЗ 8 н/о н/о +35.2 +23.8 52 +47 +47 опасность
перегрева
1003.7 1003.0
07 22.01 СЗ 7 н/о 10/10 1500 м
[]
+34.0 +23.1 53 +44 +44 опасность
перегрева
1003.3 1002.6
09 22.01 СЗ 8 н/о н/о +31.7 +25.8 71 +47 +47 опасность
перегрева
1002.9 1002.2
10 22.01 СЗ 5 н/о н/о +31.3 +25.6 72 +46 +46 опасность
перегрева
1002.9 1002.2
12 22.01 З 3 н/о н/о +29.4 +24.7 76 +42 +42 опасность
перегрева
1005.2 1004.5
13 22.01 В 9 н/о туман 10/10 200 м
[]
+24.0 +23.8 99 +33 +33 очень
душно
1008.8 1008.0 +37.2
15 22.01 З 3 н/о н/о +25.0 +24.7 98 +35 +35 очень
душно
1006.9 1006.1
16 22.01 С 4 н/о в посл. час дождь {туман} 8/0
[]
+24.9 +24.6 98 +35 +35 очень
душно
1005.7 1005.0
18 22.01 ЮВ 3 н/о н/о +25.6 +24.9 96 +36 +36 очень
душно
1003.9 1003.2
19 22.01 ЮВ 4 н/о {туман} 10/0
[]
+25.0 +24.8 99 +35 +35 очень
душно
1003.9 1003.2
21 22.01 ЮВ 4 н/о н/о +25.0 +24.8 99 +35 +35 очень
душно
1004.7 1004.0
22 22.01 В 3 н/о 9/0
[]
+25.3 +25.1 99 +36 +37 очень
душно
1005.8 1005.1
00 23.01 В 4 н/о н/о +27.4 +24.5 84 +39 +39 очень
душно
1006.5 1005.7
01 23.01 ЮВ 3 н/о 1/0
[]
+29.6 +24.7 75 +42 +53 опасность
перегрева
1006.1 1005.3 +23.9
03 23.01 В 5 н/о н/о +32.3 +23.8 61 +44 +44 опасность
перегрева
1004.5 1003.8
04 23.01 В 6 н/о {туман} 10/10 1500 м
[]
+33.1 +23.4 57 +44 +44 опасность
перегрева
1003.7 1003.0
06 23.01 ЮВ 3 н/о н/о +34.1 +24.4 57 +47 +47 опасность
перегрева
1000.9 1000.2
07 23.01 В 4 н/о {туман} 10/10 1500 м
[]
+34.7 +24.0 54 +46 +46 опасность
перегрева
1000.2 999.5
09 23.01 С 6 н/о н/о +27.8 +25.8 89 +41 +41 опасность
перегрева
1000.6 999.9
10 23.01 С 4 н/о в посл. час дождь {туман} 10/10 600 м
[]
+27.5 +25.3 88 +40 +40 очень
душно
1001.9 1001.2
12 23.01 ЮВ 4 н/о н/о +26.2 +25.2 94 +38 +38 очень
душно
1004.0 1003.3
13 23.01 ЮВ 4 н/о {туман} 10/10 600 м
[]
+26.7 +26.2 97 +40 +40 очень
душно
1004.3 1003.6 +35.4
15 23.01 В 3 н/о н/о +26.5 +26.3 99 +40 +40 очень
душно
1003.9 1003.2
16 23.01 СВ 4 н/о 10/0 2000 м
[]
+27.0 +25.4 91 +39 +39 очень
душно
1003.2 1002.5
18 23.01 СВ 5 н/о н/о +26.1 +25.2 95 +38 +38 очень
душно
1001.8 1001.1
19 23.01 СВ 6 н/о в посл. час дождь {туман} 10/0
[]
+26.0 +25.5 97 +38 +38 очень
душно
1001.6 1000.9
21 23.01 СВ 5 н/о н/о +25.9 +25.6 98 +38 +38 очень
душно
1001.0 1000.3

 

Местоположение метеостанции Дерби (Северная территория, Австралия): широта -17.36 долгота 123.66 высота над уровнем моря 7 м.

В архиве по умолчанию представлена погода в Дерби за последнюю неделю. Архивные данные за месяц целиком и за предыдущие месяцы, начиная с января 2011 года, Вы можете получить, выбрав интересующий диапазон дат из раскрывающегося списка и нажав кнопку "Ввод!".


*Определитесь, кто Вы:
робот инопланетянин человек

Внимание! Время в таблицах - всемирное. Для получения местного времени необходимо прибавить поправку, которая равна 9.5 ч.

Смотрите также архив погоды в соседних городах и на ближайших метеорологических станциях:

Погода на Базе ВВС Curtin (Западная Австралия, Австралия) (30 км)
Погода в Робак Запад (Западная Австралия, Австралия) (154 км)
Погода в Бруме (Западная Австралия, Австралия) (165 км)
Погода на Острове Адель (Западная Австралия, Австралия) (213 км)
Погода в Фицрой-Кроссинге (Западная Австралия, Австралия) (221 км)
Погода на Острове Брауз (Западная Австралия, Австралия) (362 км)
Погода в Мандоре (Западная Австралия, Австралия) (397 км)
Погода в Холс Крик (Западная Австралия, Австралия) (435 км)
Погода в Трускотте (Западная Австралия, Австралия) (467 км)
Погода в Калумбуру (Западная Австралия, Австралия) (467 км)

Пояснения к столбцам:

Ветер - указаны скорость ветра в м/с - средняя за 10 мин, порывы в срок и между сроками (в фигурных скобках) и направление, откуда дует ветер: С - северный, СВ - северо-восточный, В - восточный, ЮВ - юго-восточный, Ю - южный, ЮЗ - юго-западный, З - западный, СЗ - северо-западный.
Видимость - горизонтальная дальность видимости в метрах или километрах. При видимости от 1 до 10 км при отсутствии осадков обычно наблюдается дымка, при ухудшении видимости до 1 км и менее - туман. В сухую погоду видимость может ухудшаться дымом, пылью или мглою.
Явления - указаны атмосферные явления, наблюдавшиеся в срок или в последний час перед сроком; фигурными скобками обозначены явления, наблюдавшиеся между сроками (за 1-3 часа до срока); квадратными скобками обозначены град или гололедные отложения с указанием их диаметра в мм.
Облачность - указаны через наклонную черту общая и нижняя облачность в баллах и высота нижней границы облаков в метрах; квадратными скобками обозначены формы облаков: Ci - перистые, Cs - перисто-слоистые, Cc - перисто-кучевые, Ac - высококучевые, As - высокослоистые, Sc - слоисто-кучевые, Ns - слоисто-дождевые, Cu - кучевые, Cb - кучево-дождевые. Подробнее классификацию облаков см. в Атласе облаков (PDF).
T - Температура воздуха - температура, измеренная на высоте 2 м над землей.
Td - Температура точки росы - температура, при понижении до которой содержащийся в воздухе водяной пар достигнет насыщения.
f - Относительная влажность воздуха - влажноcть воздуха, измеренная на высоте 2 м над землей.
Te - Эффективная температура - температура, которую ощущает одетый по сезону человек в тени. Характеристика душности погоды. При расчете учитывается влияние влажности воздуха и скорости ветра на теплоощущения человека.
Tes - Эффективная температура на солнце - температура, которую ощущает человек, с поправкой на солнечный нагрев. Характеристика знойности погоды. Зависит от высоты солнца над горизонтом, облачности и скорости ветра. Ночью, в пасмурную погоду, а также при ветре 12 м/с и более поправка равна нулю.
P - Атмосферное давление - приведенное к уровню моря атмосферное давление.
Po - Атмосферное давление - измеренное на уровне метеостанции атмосферное давление.
Tmin - Минимальная температура - минимум температуры воздуха на высоте 2 м над землей.
Tmax - Максимальная температура - максимум температуры воздуха на высоте 2 м над землей.
R - Количество осадков - Количество выпавших осадков за период времени, мм. При наведении курсора мыши на число - период времени, за который выпало указанное количество осадков.
R24 - Количество осадков - Количество выпавших осадков за 24 часа, мм.
S - Снежный покров - Высота снежного покрова, см. При наведении курсора мыши на число - состояние снежного покрова и степень покрытия местности в баллах.